[[{"header":{"parameterUnit":"m.s-1","parameterCategory":1,"la1":30.2991,"la2":30.254,"lo1":-89.0895,"lo2":-89.0444,"dy":0.0017,"dx":0.0017,"nx":28,"ny":28,"refTime":"2024-10-15T21:00:00:Z","depth":0,"parameterNumber":2,"parameterNumberName":"U-component_of_WINDS"},"data":[0,0,0,0,0,0,0,0,0,0,0,0,0,0,0,0,0,0,0,0,0,0,0,0,0,0,0,0,0,0,0,0,0,0,0,0,0,0,0,0,0,0,0,0,0,0,0,0,0,0,0,0,0,0,0,0,0,0,-4.9182,-4.9183,0,-4.923,-4.9231,-4.9231,-4.9106,-4.9102,-4.9098,-4.9095,-4.9144,-4.9148,-4.9153,0,0,0,0,0,0,0,0,0,0,0,0,0,-4.8982,-4.8986,-4.9182,-4.9183,-4.9184,-4.923,-4.9231,-4.9231,-4.9107,-4.9102,-4.9097,-4.9093,-4.9142,-4.9148,-4.9154,0,0,0,0,0,0,0,0,0,0,0,0,0,-4.9053,-4.8988,-4.9182,-4.9127,-4.9123,-4.923,-4.9231,-4.9231,-4.9108,-4.9102,-4.9096,-4.9091,-4.914,-4.9147,-4.9155,-4.9318,0,0,-4.9177,-4.918,0,0,0,0,0,0,0,0,-4.905,-4.9061,-4.9135,-4.9131,-4.9126,-4.9156,-4.9178,-4.926,-4.9109,-4.9114,-4.9095,-4.9088,-4.9153,-4.9159,-4.918,-4.932,-4.9322,-4.9178,-4.9182,-4.9186,-4.9188,0,0,0,0,0,0,0,-4.9045,-4.9058,-4.9201,-4.9136,-4.9131,-4.9099,-4.9103,-4.9193,-4.9165,-4.9113,-4.9104,-4.9111,-4.9149,-4.9174,-4.9181,-4.9323,-4.9178,-4.9184,-4.9189,-4.9192,-4.9597,-4.9603,0,0,0,0,0,0,-4.9047,-4.9055,-4.92,-4.9203,-4.9073,-4.9108,-4.9112,-4.9152,-4.9164,-4.916,-4.9116,-4.9105,-4.9164,-4.9172,-4.9182,-4.9373,-4.9186,-4.9193,-4.9197,-4.9591,-4.9599,-4.9606,0,0,0,0,0,0,-4.9043,-4.9061,-4.9198,-4.9126,-4.9141,-4.9117,-4.9164,-4.9157,-4.9181,-4.9166,-4.9161,-4.9146,-4.9159,-4.9171,-4.9285,-4.9373,-4.9196,-4.9203,-4.9584,-4.9593,-4.9602,-4.9759,0,0,0,0,0,0,-4.9038,-4.9061,-4.9123,-4.9129,-4.9146,-4.9301,-4.917,-4.9162,-4.9194,-4.918,-4.9193,-4.919,-4.9156,-4.9274,-4.9292,-4.938,-4.9208,-4.9576,-4.9588,-4.9599,-4.9745,-4.9772,-4.9795,0,0,0,0,0,-4.9031,-4.9165,-4.9127,-4.9145,-4.9223,-4.9306,-4.9316,-4.9274,-4.9202,-4.9264,-4.9254,-4.9189,-4.936,-4.9287,-4.9306,-4.9398,-4.957,-4.9585,-4.9598,-4.9734,-4.9767,-4.9795,0,0,0,0,0,0,-4.9171,-4.9165,-4.9122,-4.9262,-4.9285,-4.9285,-4.9362,-4.931,-4.9354,-4.934,-4.9285,-4.9289,-4.9413,-4.9416,-4.9334,-4.9556,-4.9453,-4.9472,-4.955,-4.9581,-4.9605,-4.9602,-4.9215,0,0,0,0,0,-4.9217,-4.9286,-4.9277,-4.9401,-4.9415,-4.9387,-4.9421,-4.9387,-4.9409,-4.9418,-4.9417,-4.9441,-4.95,-4.954,-4.9593,-4.9744,-4.9745,-4.9817,-4.9842,-4.9862,-4.988,-4.9959,-4.9991,-4.9652,-4.9652,-4.9652,0,0,-4.9315,-4.932,-4.9367,-4.9429,-4.9443,-4.9515,-4.9396,-4.9477,-4.9529,-4.943,-4.9538,-4.9538,-4.956,-4.9693,-4.9752,-4.97,-4.9973,-4.988,-4.9897,-4.9903,-4.9977,-5.0009,-5.0038,-4.9662,-4.966,-4.9659,0,0,-4.953,-4.9541,-4.9646,-4.9662,-4.9685,-4.9665,-4.969,-4.9697,-4.9693,-4.98,-4.9727,-4.9788,-4.9891,-4.991,-4.9933,-5.0154,-5.0096,-5.0173,-5.0303,-5.0382,-5.0408,-5.0432,-5.0511,-5.054,-5.0189,-5.019,-5.019,0,-4.965,-4.9755,-4.9706,-4.9792,-4.9821,-4.9734,-4.9839,-4.9857,-4.9897,-4.9919,-4.986,-4.9986,-4.9995,-5.0132,-5.0185,-5.0207,-5.0234,-5.0172,-5.0409,-5.0432,-5.0453,-5.0528,-5.0558,-5.0199,-5.0198,-5.0197,-5.0196,0,-4.99,-4.9974,-5.0056,-5.0096,-5.0134,-5.0229,-5.0194,-5.0238,-5.02,-5.0186,-5.0295,-5.0303,-5.0356,-5.0385,-5.0349,-5.0516,-5.0483,-5.0418,-5.0313,-5.0495,-5.0565,-5.0593,-5.0212,-5.0209,-5.0206,-5.0204,0,0,-5.0207,-5.0217,-5.0248,-5.0265,-5.0283,-5.0339,-5.0429,-5.0481,-5.0521,-5.055,-5.0625,-5.0713,-5.0651,-5.0678,-5.0642,-5.0711,-5.0886,-5.0636,-5.0636,-5.0683,-5.1071,-5.1121,-5.1156,-5.0846,-5.0852,-5.0856,-5.1069,0,-5.042,-5.0576,-5.0534,-5.069,-5.0757,-5.0674,-5.0753,-5.0773,-5.0762,-5.0817,-5.0804,-5.0868,-5.0782,-5.0797,-5.0861,-5.0851,-5.0963,-5.0835,-5.0916,-5.0919,-5.0914,-5.1192,-5.1246,-5.1447,-5.1096,-5.11,-5.1104,0,-5.069,-5.073,-5.0893,-5.0898,-5.0925,-5.0997,-5.104,-5.1094,-5.1114,-5.1101,-5.113,-5.108,-5.1168,-5.1062,-5.1184,-5.1097,-5.1127,-5.1127,-5.1134,-5.1141,-5.1024,-5.1208,-5.151,-5.1541,-5.1146,-5.1142,-5.1139,0,-5.0899,-5.0992,-5.1102,-5.1118,-5.1128,-5.118,-5.1186,-5.12,-5.1234,-5.1271,-5.1292,-5.134,-5.1367,-5.1404,-5.1368,-5.1294,-5.1495,-5.1386,-5.1487,-5.1489,-5.1535,-5.1533,-5.1848,-5.1553,-5.1552,-5.1552,-5.1551,0,-5.1142,-5.1245,-5.1195,-5.1263,-5.1376,-5.1325,-5.1438,-5.1434,-5.1447,-5.1512,-5.1442,-5.1505,-5.1453,-5.151,-5.1482,-5.1587,-5.1599,-5.1591,-5.1583,-5.1599,-5.16,-5.1619,-5.1604,-5.1559,-5.1558,-5.1556,-5.1555,0,-5.1395,-5.1366,-5.148,-5.1479,-5.1481,-5.1564,-5.1563,-5.1625,-5.1607,-5.1691,-5.1707,-5.1681,-5.1745,-5.1712,-5.1778,-5.1759,-5.1895,-5.1867,-5.1889,-5.1882,-5.1986,-5.1977,-5.2325,-5.2368,-5.2044,-5.2047,-5.205,0,-5.1553,-5.1631,-5.1637,-5.1676,-5.1687,-5.175,-5.1783,-5.1736,-5.1774,-5.1801,-5.186,-5.1918,-5.1962,-5.2068,-5.2054,-5.2104,-5.2078,-5.2196,-5.2085,-5.2098,-5.2081,-5.2077,-5.2085,-5.2219,-5.2223,-5.2226,-5.2229,0,-5.1837,-5.1819,-5.187,-5.1917,-5.1959,-5.1993,-5.2021,-5.2056,-5.2009,-5.2055,-5.212,-5.2154,-5.2221,-5.2279,-5.2322,-5.2327,-5.2271,-5.2263,-5.2289,-5.2307,-5.2317,-5.2314,-5.1951,-5.2256,-5.2253,-5.2251,-5.225,-5.2249,-5.2048,-5.2113,-5.2128,-5.2187,-5.2203,-5.2231,-5.2289,-5.2279,-5.2332,-5.2383,-5.2351,-5.2427,-5.2443,-5.2495,-5.2507,-5.2565,-5.2518,-5.2556,-5.2566,-5.2576,-5.2591,-5.2307,-5.2573,-5.2572,-5.2571,-5.2571,-5.257,0,-5.233,-5.2335,-5.239,-5.2431,-5.2478,-5.2419,-5.2447,-5.2489,-5.2557,-5.2577,-5.2621,-5.2695,-5.275,-5.2741,-5.2791,-5.2839,-5.2815,-5.2854,-5.2851,-5.2853,-5.263,-5.2603,-5.2873,-5.2873,-5.2873,-5.2873,-5.2873,-5.2873,-5.2482,-5.2588,-5.2571,-5.2684,-5.2688,-5.2762,-5.2783,-5.2807,-5.2823,-5.2908,-5.2954,-5.2947,-5.2955,-5.3005,-5.3053,-5.3048,-5.3071,-5.3121,-5.3107,-5.2899,-5.2869,-5.284,-5.2815,-5.3125,-5.3126,-5.3325,-5.3327,-5.3328]},{"header":{"parameterUnit":"m.s-1","parameterCategory":1,"la1":30.2991,"la2":30.254,"lo1":-89.0895,"lo2":-89.0444,"dy":0.0017,"dx":0.0017,"nx":28,"ny":28,"refTime":"2024-10-15T21:00:00:Z","depth":0,"parameterNumber":3,"parameterNumberName":"V-component_of_WINDS"},"data":[0,0,0,0,0,0,0,0,0,0,0,0,0,0,0,0,0,0,0,0,0,0,0,0,0,0,0,0,0,0,0,0,0,0,0,0,0,0,0,0,0,0,0,0,0,0,0,0,0,0,0,0,0,0,0,0,0,0,-9.1931,-9.1933,0,-9.2034,-9.2035,-9.2037,-9.1915,-9.191,-9.1906,-9.1902,-9.2001,-9.2007,-9.2014,0,0,0,0,0,0,0,0,0,0,0,0,0,-9.1622,-9.1629,-9.1931,-9.1933,-9.1934,-9.2034,-9.2035,-9.2037,-9.1916,-9.191,-9.1905,-9.19,-9.1998,-9.2006,-9.2015,0,0,0,0,0,0,0,0,0,0,0,0,0,-9.1744,-9.1631,-9.1931,-9.1886,-9.1883,-9.2034,-9.2036,-9.2037,-9.1917,-9.191,-9.1903,-9.1897,-9.1996,-9.2006,-9.2016,-9.2214,0,0,-9.2047,-9.2051,0,0,0,0,0,0,0,0,-9.1737,-9.1755,-9.1891,-9.1889,-9.1886,-9.1955,-9.1963,-9.2096,-9.1919,-9.1904,-9.1902,-9.1894,-9.199,-9.2001,-9.2035,-9.2219,-9.2223,-9.2048,-9.2054,-9.2059,-9.2061,0,0,0,0,0,0,0,-9.1729,-9.175,-9.1972,-9.1893,-9.189,-9.1858,-9.1868,-9.1987,-9.1983,-9.1904,-9.1896,-9.191,-9.1988,-9.2025,-9.2036,-9.2225,-9.2048,-9.2057,-9.2063,-9.2067,-9.2576,-9.2583,0,0,0,0,0,0,-9.1727,-9.1744,-9.1968,-9.1975,-9.1794,-9.1869,-9.188,-9.194,-9.1982,-9.1982,-9.1916,-9.1904,-9.2011,-9.2024,-9.2039,-9.2274,-9.2058,-9.2068,-9.2074,-9.2568,-9.2577,-9.2585,0,0,0,0,0,0,-9.1721,-9.1748,-9.1964,-9.1857,-9.1882,-9.1881,-9.1949,-9.1945,-9.1982,-9.1991,-9.1988,-9.1955,-9.2006,-9.2025,-9.2172,-9.2275,-9.2073,-9.2082,-9.256,-9.2571,-9.2581,-9.2746,0,0,0,0,0,0,-9.1712,-9.1747,-9.1824,-9.186,-9.1889,-9.2098,-9.1956,-9.1952,-9.2001,-9.1987,-9.2027,-9.2027,-9.2002,-9.2157,-9.2182,-9.2286,-9.209,-9.255,-9.2565,-9.2578,-9.2731,-9.2761,-9.2787,0,0,0,0,0,-9.1702,-9.1865,-9.1829,-9.1856,-9.1986,-9.2105,-9.212,-9.209,-9.201,-9.2087,-9.2092,-9.2026,-9.226,-9.2173,-9.22,-9.2309,-9.2544,-9.2561,-9.2577,-9.2718,-9.2755,-9.2786,0,0,0,0,0,0,-9.1839,-9.1869,-9.1829,-9.2009,-9.2056,-9.2084,-9.2179,-9.213,-9.2199,-9.2182,-9.2139,-9.2149,-9.2306,-9.2322,-9.2225,-9.2503,-9.2388,-9.2411,-9.2487,-9.2522,-9.2549,-9.2542,-9.2099,0,0,0,0,0,-9.189,-9.1987,-9.2007,-9.2163,-9.2189,-9.2181,-9.2231,-9.2204,-9.225,-9.2268,-9.2283,-9.2328,-9.2411,-9.2467,-9.2545,-9.2733,-9.2738,-9.282,-9.2848,-9.2871,-9.2891,-9.299,-9.3026,-9.264,-9.2639,-9.2639,0,0,-9.1997,-9.2025,-9.2088,-9.2192,-9.2224,-9.2323,-9.2198,-9.2307,-9.2379,-9.2284,-9.2424,-9.2438,-9.2484,-9.2653,-9.2727,-9.267,-9.2999,-9.2892,-9.291,-9.2918,-9.3011,-9.3047,-9.308,-9.2651,-9.2649,-9.2647,0,0,-9.2242,-9.2274,-9.2408,-9.2444,-9.2495,-9.2489,-9.2521,-9.2557,-9.2563,-9.2704,-9.2634,-9.2717,-9.2863,-9.2899,-9.2936,-9.3194,-9.3136,-9.322,-9.3366,-9.3463,-9.3493,-9.352,-9.3611,-9.3645,-9.324,-9.3241,-9.3241,0,-9.2367,-9.2515,-9.2482,-9.2597,-9.2644,-9.2564,-9.2698,-9.2733,-9.2807,-9.284,-9.2776,-9.2956,-9.2982,-9.3157,-9.322,-9.3253,-9.3287,-9.3216,-9.3492,-9.3519,-9.3543,-9.3629,-9.3664,-9.3251,-9.3249,-9.3248,-9.3248,0,-9.2666,-9.277,-9.2871,-9.2947,-9.3005,-9.3129,-9.3113,-9.3175,-9.3143,-9.3142,-9.3285,-9.3314,-9.3395,-9.3434,-9.3403,-9.3605,-9.3568,-9.3499,-9.3383,-9.359,-9.3671,-9.3704,-9.3265,-9.3261,-9.3258,-9.3256,0,0,-9.3,-9.3057,-9.3094,-9.3128,-9.3179,-9.3257,-9.3376,-9.3458,-9.3512,-9.3565,-9.3662,-9.3787,-9.3723,-9.3766,-9.3737,-9.3823,-9.4025,-9.3743,-9.3743,-9.3794,-9.4248,-9.43,-9.4339,-9.3986,-9.3993,-9.3998,-9.4244,0,-9.3245,-9.3455,-9.3428,-9.3628,-9.3722,-9.3647,-9.3751,-9.3792,-9.3795,-9.3873,-9.3874,-9.3963,-9.3873,-9.3898,-9.3979,-9.3983,-9.4115,-9.3965,-9.4075,-9.4079,-9.4066,-9.4381,-9.4436,-9.4667,-9.4275,-9.428,-9.4284,0,-9.3559,-9.3627,-9.3837,-9.3873,-9.3911,-9.4006,-9.4078,-9.4154,-9.4199,-9.4194,-9.4242,-9.4199,-9.4315,-9.4198,-9.4358,-9.4256,-9.4299,-9.4308,-9.4316,-9.4325,-9.4194,-9.4397,-9.474,-9.4774,-9.4333,-9.4329,-9.4326,0,-9.3781,-9.3924,-9.4068,-9.4098,-9.4144,-9.4212,-9.4234,-9.4272,-9.4323,-9.4385,-9.4417,-9.4491,-9.4532,-9.459,-9.4566,-9.4483,-9.473,-9.4611,-9.4728,-9.4729,-9.4783,-9.478,-9.5137,-9.4812,-9.4811,-9.4811,-9.481,0,-9.4057,-9.4189,-9.4168,-9.4257,-9.4401,-9.4367,-9.451,-9.4522,-9.4557,-9.4644,-9.4583,-9.4666,-9.4631,-9.4711,-9.4693,-9.4827,-9.4846,-9.4844,-9.4838,-9.485,-9.485,-9.4877,-9.486,-9.482,-9.4818,-9.4816,-9.4815,0,-9.433,-9.4321,-9.4473,-9.4505,-9.4516,-9.4621,-9.4646,-9.4728,-9.4726,-9.4838,-9.4862,-9.4857,-9.4948,-9.4931,-9.5031,-9.5019,-9.5187,-9.5161,-9.5173,-9.5166,-9.5284,-9.5273,-9.5671,-9.572,-9.5364,-9.5368,-9.5371,0,-9.4506,-9.4606,-9.4649,-9.4705,-9.4732,-9.4822,-9.4874,-9.4845,-9.4901,-9.4959,-9.5033,-9.5119,-9.5187,-9.5335,-9.5339,-9.5415,-9.539,-9.5524,-9.54,-9.5409,-9.5391,-9.5385,-9.5394,-9.5548,-9.5552,-9.5555,-9.5558,0,-9.4821,-9.4812,-9.489,-9.4968,-9.5032,-9.5091,-9.5143,-9.5192,-9.5166,-9.5232,-9.5326,-9.5378,-9.5481,-9.5566,-9.5637,-9.5656,-9.5603,-9.5597,-9.5628,-9.5641,-9.5644,-9.5643,-9.5239,-9.5588,-9.5585,-9.5583,-9.5581,-9.558,-9.505,-9.5135,-9.5179,-9.5268,-9.5305,-9.5355,-9.5434,-9.5442,-9.552,-9.5603,-9.558,-9.5686,-9.5726,-9.5816,-9.5843,-9.5924,-9.5874,-9.5919,-9.593,-9.5942,-9.5956,-9.5632,-9.5937,-9.5936,-9.5935,-9.5934,-9.5934,0,-9.5361,-9.5385,-9.5468,-9.5544,-9.5614,-9.556,-9.5615,-9.5676,-9.5772,-9.5815,-9.5883,-9.5989,-9.6072,-9.6083,-9.6161,-9.6223,-9.6201,-9.6244,-9.6239,-9.6244,-9.5996,-9.5962,-9.6261,-9.6261,-9.6261,-9.6261,-9.6261,-9.6261,-9.553,-9.5671,-9.5667,-9.5824,-9.5847,-9.5953,-9.5989,-9.6034,-9.6068,-9.6191,-9.6261,-9.6268,-9.6298,-9.6377,-9.6449,-9.645,-9.6481,-9.6534,-9.6526,-9.6294,-9.6262,-9.623,-9.6198,-9.6542,-9.6542,-9.6767,-9.6769,-9.677]}]]